Location: Gorze? G�rny
(49.8500°N, 19.5000°E)
Time: 04:08:17
(UTC+00:00)

Cosmos 1782 Rocket - Pass Details

Date: 13 May 2021
Orbit: 606 x 633 km, 82.5° (Epoch: 23 June)

Event Time Altitude Azimuth Distance (km) Brightness Sun altitude
Rises 22:41:50 0° 344° (NNW) 2,932 8.3 -21.5°
Reaches altitude 10° 22:44:10 10° 338° (NNW) 2,016 7.1 -21.5°
Maximum altitude 22:48:23 43° 268° (W) 885 4.2 -21.5°
Enters shadow 22:48:59 40° 245° (WSW) 921 4.2 -21.5°
